When you browse on this site, cookies collect data to enhance your experience and personalize the content and advertising you see.
Visit our Privacy Policy to learn more. By continuing to use the site, you agree to this use of cookies and data.
  • Em Portugal
  • Lista de países
  • Para 7 dias
  • Temperatura da água
  • Mapa do tempo
  • Widgets de tempo
  • user-avatar
    Iniciar Sessão

    Previsão horária em Sapkovo

    Hoje, 3 Junho, Quarta-feira

    Tempo Temperatura Precipitação Vento Pressão Humidade
    00:00 +8°C° 0 mm 3 m/s 748 mmHg 92%
    01:00 +8°C° 0 mm 3 m/s 748 mmHg 92%
    02:00 +8°C° 0 mm 3 m/s 748 mmHg 93%
    03:00 +9°C° 0 mm 3 m/s 748 mmHg 93%
    04:00 +8°C° 0 mm 4 m/s 747 mmHg 93%
    05:00 +8°C° 0 mm 4 m/s 747 mmHg 94%
    06:00 +8°C° 0.8 mm 4 m/s 747 mmHg 94%
    07:00 +10°C° 0.8 mm 4 m/s 747 mmHg 95%
    08:00 +10°C° 0.8 mm 3 m/s 747 mmHg 95%
    09:00 +11°C° 0.8 mm 4 m/s 747 mmHg 95%
    10:00 +11°C° 0.8 mm 4 m/s 746 mmHg 95%
    11:00 +12°C° 0.8 mm 4 m/s 746 mmHg 95%
    12:00 +12°C° 0.3 mm 4 m/s 746 mmHg 95%
    13:00 +12°C° 0.3 mm 4 m/s 746 mmHg 94%
    14:00 +13°C° 0.3 mm 4 m/s 746 mmHg 94%
    15:00 +13°C° 0.3 mm 4 m/s 746 mmHg 94%
    16:00 +13°C° 0.3 mm 4 m/s 745 mmHg 95%
    17:00 +13°C° 0.3 mm 4 m/s 745 mmHg 95%
    18:00 +13°C° 0.1 mm 4 m/s 744 mmHg 95%
    19:00 +13°C° 0.1 mm 4 m/s 744 mmHg 95%
    20:00 +13°C° 0.1 mm 4 m/s 744 mmHg 95%
    21:00 +13°C° 0.3 mm 4 m/s 743 mmHg 95%
    22:00 +13°C° 0.3 mm 4 m/s 742 mmHg 96%
    23:00 +12°C° 0.3 mm 4 m/s 742 mmHg 96%

    Amanhã, 4 Junho, Quinta-feira

    Tempo Temperatura Precipitação Vento Pressão Humidade
    00:00 +12°C° 2.7 mm 4 m/s 741 mmHg 97%
    01:00 +12°C° 2.7 mm 4 m/s 740 mmHg 97%
    02:00 +12°C° 2.7 mm 3 m/s 739 mmHg 98%
    03:00 +12°C° 3.1 mm 3 m/s 738 mmHg 98%
    04:00 +12°C° 3.1 mm 3 m/s 738 mmHg 98%
    05:00 +13°C° 3.1 mm 2 m/s 737 mmHg 98%
    06:00 +12°C° 1.4 mm 3 m/s 737 mmHg 98%
    07:00 +12°C° 1.4 mm 3 m/s 737 mmHg 98%
    08:00 +13°C° 1.4 mm 3 m/s 737 mmHg 98%
    09:00 +14°C° 0.1 mm 3 m/s 737 mmHg 93%
    10:00 +15°C° 0.1 mm 4 m/s 738 mmHg 89%
    11:00 +17°C° 0.1 mm 4 m/s 738 mmHg 84%
    12:00 +18°C° 0.4 mm 4 m/s 739 mmHg 82%
    13:00 +18°C° 0.4 mm 4 m/s 739 mmHg 80%
    14:00 +19°C° 0.4 mm 4 m/s 740 mmHg 78%
    15:00 +19°C° 0.3 mm 3 m/s 740 mmHg 77%
    16:00 +19°C° 0.2 mm 3 m/s 740 mmHg 76%
    17:00 +19°C° 0.2 mm 2 m/s 740 mmHg 74%
    18:00 +18°C° 0.6 mm 2 m/s 740 mmHg 80%
    19:00 +16°C° 0.6 mm 2 m/s 740 mmHg 85%
    20:00 +14°C° 0.6 mm 2 m/s 740 mmHg 91%
    21:00 +14°C° 0 mm 2 m/s 741 mmHg 92%
    22:00 +13°C° 0 mm 2 m/s 741 mmHg 93%
    23:00 +12°C° 0 mm 2 m/s 741 mmHg 94%

    Depois de amanhã, 5 Junho, Sexta-feira

    Tempo Temperatura Precipitação Vento Pressão Humidade
    00:00 +12°C° 0 mm 2 m/s 741 mmHg 94%
    01:00 +10°C° 0 mm 2 m/s 742 mmHg 95%
    02:00 +10°C° 0 mm 2 m/s 742 mmHg 95%
    03:00 +10°C° 0 mm 2 m/s 742 mmHg 95%
    04:00 +12°C° 0 mm 2 m/s 742 mmHg 94%
    05:00 +12°C° 0 mm 2 m/s 742 mmHg 94%
    06:00 +13°C° 0 mm 3 m/s 742 mmHg 89%
    07:00 +14°C° 0 mm 3 m/s 743 mmHg 84%
    08:00 +17°C° 0 mm 3 m/s 743 mmHg 78%
    09:00 +18°C° 0.9 mm 4 m/s 743 mmHg 79%
    10:00 +18°C° 0.9 mm 4 m/s 743 mmHg 79%
    11:00 +18°C° 0.9 mm 4 m/s 743 mmHg 79%
    12:00 +18°C° 0.8 mm 4 m/s 743 mmHg 78%
    13:00 +19°C° 0.8 mm 4 m/s 743 mmHg 77%
    14:00 +19°C° 0.8 mm 4 m/s 743 mmHg 75%
    15:00 +18°C° 0.5 mm 4 m/s 742 mmHg 77%
    16:00 +18°C° 0.5 mm 4 m/s 742 mmHg 79%
    17:00 +18°C° 0.5 mm 3 m/s 742 mmHg 81%
    18:00 +17°C° 0 mm 3 m/s 742 mmHg 84%
    19:00 +14°C° 0 mm 3 m/s 742 mmHg 87%
    20:00 +13°C° 0 mm 3 m/s 743 mmHg 90%
    21:00 +13°C° 0 mm 3 m/s 743 mmHg 92%
    22:00 +12°C° 0 mm 3 m/s 743 mmHg 95%
    23:00 +12°C° 0 mm 3 m/s 743 mmHg 97%

    6 Junho, Sábado

    Tempo Temperatura Precipitação Vento Pressão Humidade
    00:00 +11°C° 0 mm 3 m/s 743 mmHg 97%
    01:00 +12°C° 0 mm 2 m/s 743 mmHg 98%
    02:00 +10°C° 0 mm 2 m/s 744 mmHg 98%
    03:00 +12°C° 0 mm 2 m/s 744 mmHg 98%
    04:00 +12°C° 0 mm 3 m/s 744 mmHg 97%
    05:00 +13°C° 0 mm 3 m/s 744 mmHg 96%
    06:00 +13°C° 0 mm 3 m/s 744 mmHg 95%
    07:00 +14°C° 0 mm 3 m/s 744 mmHg 93%
    08:00 +14°C° 0 mm 3 m/s 745 mmHg 91%
    09:00 +16°C° 0 mm 3 m/s 745 mmHg 89%
    10:00 +17°C° 0 mm 3 m/s 745 mmHg 87%
    11:00 +17°C° 0 mm 3 m/s 745 mmHg 85%
    12:00 +18°C° 0 mm 3 m/s 745 mmHg 82%
    13:00 +20°C° 0 mm 4 m/s 745 mmHg 79%
    14:00 +21°C° 0 mm 4 m/s 745 mmHg 76%
    15:00 +21°C° 0.8 mm 3 m/s 745 mmHg 81%
    16:00 +20°C° 0.8 mm 3 m/s 745 mmHg 86%
    17:00 +20°C° 0.8 mm 2 m/s 744 mmHg 91%
    18:00 +19°C° 0.4 mm 3 m/s 745 mmHg 91%
    19:00 +19°C° 0.4 mm 3 m/s 745 mmHg 92%
    20:00 +19°C° 0.4 mm 3 m/s 745 mmHg 92%
    21:00 +18°C° 0.5 mm 3 m/s 745 mmHg 93%
    22:00 +18°C° 0.5 mm 3 m/s 746 mmHg 95%
    23:00 +18°C° 0.5 mm 3 m/s 746 mmHg 96%

    7 Junho, Domingo

    Tempo Temperatura Precipitação Vento Pressão Humidade
    00:00 +17°C° 0 mm 2 m/s 746 mmHg 96%
    01:00 +16°C° 0 mm 2 m/s 747 mmHg 97%
    02:00 +16°C° 0 mm 2 m/s 747 mmHg 97%
    03:00 +16°C° 0 mm 2 m/s 748 mmHg 97%
    04:00 +16°C° 0 mm 2 m/s 749 mmHg 96%
    05:00 +16°C° 0 mm 2 m/s 749 mmHg 95%
    06:00 +18°C° 0 mm 2 m/s 750 mmHg 89%
    07:00 +19°C° 0 mm 2 m/s 750 mmHg 83%
    08:00 +21°C° 0 mm 2 m/s 751 mmHg 77%
    09:00 +23°C° 0 mm 2 m/s 751 mmHg 69%
    10:00 +24°C° 0 mm 2 m/s 752 mmHg 61%
    11:00 +25°C° 0 mm 2 m/s 752 mmHg 54%
    12:00 +26°C° 0 mm 2 m/s 752 mmHg 51%
    13:00 +26°C° 0 mm 1 m/s 752 mmHg 49%
    14:00 +27°C° 0 mm 1 m/s 752 mmHg 47%
    15:00 +27°C° 0 mm 1 m/s 752 mmHg 51%
    16:00 +26°C° 0 mm 1 m/s 752 mmHg 55%
    17:00 +26°C° 0 mm 1 m/s 751 mmHg 59%
    18:00 +24°C° 0 mm 1 m/s 751 mmHg 66%
    19:00 +22°C° 0 mm 1 m/s 751 mmHg 74%
    20:00 +20°C° 0 mm 2 m/s 751 mmHg 82%
    21:00 +19°C° 0 mm 2 m/s 751 mmHg 86%
    22:00 +18°C° 0 mm 2 m/s 752 mmHg 90%
    23:00 +18°C° 0 mm 2 m/s 752 mmHg 94%

    8 Junho, Segunda-feira

    Tempo Temperatura Precipitação Vento Pressão Humidade
    00:00 +17°C° 0 mm 2 m/s 752 mmHg 95%
    01:00 +17°C° 0 mm 2 m/s 751 mmHg 96%
    02:00 +17°C° 0 mm 2 m/s 751 mmHg 97%
    03:00 +18°C° 0 mm 2 m/s 751 mmHg 96%
    04:00 +18°C° 0 mm 2 m/s 751 mmHg 94%
    05:00 +18°C° 0 mm 2 m/s 751 mmHg 93%
    06:00 +20°C° 0 mm 3 m/s 751 mmHg 87%
    07:00 +21°C° 0 mm 3 m/s 752 mmHg 81%
    08:00 +24°C° 0 mm 3 m/s 752 mmHg 75%
    09:00 +25°C° 0.1 mm 3 m/s 752 mmHg 70%
    10:00 +26°C° 0.1 mm 4 m/s 752 mmHg 65%
    11:00 +26°C° 0.1 mm 4 m/s 752 mmHg 60%
    12:00 +27°C° 0.2 mm 4 m/s 751 mmHg 61%
    13:00 +27°C° 0.2 mm 5 m/s 751 mmHg 61%
    14:00 +27°C° 0.2 mm 5 m/s 751 mmHg 62%
    15:00 +27°C° 0.4 mm 4 m/s 751 mmHg 66%
    16:00 +26°C° 0.4 mm 4 m/s 751 mmHg 70%
    17:00 +25°C° 0.4 mm 3 m/s 750 mmHg 74%
    18:00 +24°C° 0 mm 3 m/s 751 mmHg 79%
    19:00 +22°C° 0 mm 3 m/s 751 mmHg 84%
    20:00 +21°C° 0 mm 2 m/s 751 mmHg 89%
    21:00 +20°C° 0 mm 2 m/s 751 mmHg 91%
    22:00 +20°C° 0 mm 2 m/s 751 mmHg 93%
    23:00 +19°C° 0 mm 2 m/s 752 mmHg 95%
    Mostrar mais